Location: Seven Kings
(51.5667°N, 0.1000°E)
Time: 20:11:08
(UTC+00:00)

X-37B - Pass Details

Date: 21 June 2021
Orbit: 383 x 392 km, 45.0° (Epoch: 01 July)

Event Time Altitude Azimuth Distance (km) Brightness Sun altitude
Exits shadow 01:05:29 21° 153° (SSE) 926 2.1 -13.7°
Drops below altitude 10° 01:07:10 10° 125° (SE) 1,405 3.2 -13.6°
Sets 01:09:27 0° 112° (ESE) 2,260 4.4 -13.5°
